Погода в Кярдле

Эстония     58°59′43″N   22°44′43″E
темп.,
°C
ветер,
м/с
пор.,
м/с
влажн.,
%
обл.,
%
осадки,
мм/ч
давл.,
гПа
погр.,
м
6 марта, сб
сб623:00−3ссз47670 0.0 1021306
02:00−3з34660 0.0 1021132
05:00−2зюз496457 0.0 1018410
08:000юз6136978 0.0 1015666
11:00+1зюз81575100 0.0 1011941
14:00+2зюз91768100 0.1 1008721
17:00+2з101772100 0.0 10041027
20:00+3з81770100 0.3 10021038
7 марта, вс
вс723:000сз91661100 0.2 10011617
02:00−3сз10173983 0.2 10022016
05:00−2зсз13194864 0.1 9992131
08:00−1сз13215968 0.4 9962107
11:00−2сз121861100 0.1 9971908
14:00−2ссз121760100 0.3 10001465
17:00−3ссз9126468 0.0 10031337
20:00−4с7107184 0.1 10061100
8 марта, пн
пн823:00−4с7972100 0.1 1008920
02:00−5с71075100 0.1 10111003
05:00−5с71076100 0.1 1013768
08:00−6с6107378 0.1 1016644
11:00−5с686116 0.0 1017769
14:00−4с57579 0.0 1019700
17:00−4ссз46570 0.0 1019538
20:00−4сз255818 0.0 1019181
9 марта, вт
вт923:00−3зюз387555 0.0 1018269
02:00−1з6136471 0.0 1016658
05:00−1зсз6125797 0.0 1015695
08:00−1з5116098 0.0 1015669
11:000з61058100 0.0 1015902
14:00+1зсз6959100 0.0 1015913
17:00−1зсз5869100 0.0 1015693
20:00−2с3582100 0.0 1016216
10 марта, ср
ср1023:00−4всв4789100 0.0 1017352
02:00−6в588396 0.1 1018387
05:00−7вюв588185 0.0 1018370
08:00−9вюв597951 0.0 1019371
11:00−7юв58690 0.0 1020422
14:00−5юв58640 0.0 1019520
17:00−5ююв59660 0.0 1019504
20:00−5юв5106812 0.0 1017480